Location: *
(28.3744°N, 81.5492°W)
Time: 03:56:59
(UTC+00:00)

Okean O Rocket - Pass Details

Date: 15 June 2025
Orbit: 615 x 635 km, 98.0° (Epoch: 11 July)

Event Time Altitude Azimuth Distance (km) Brightness Sun altitude
Exits shadow 00:58:32 - 100° (E) 2,206 3.8 -7.3°
Reaches altitude 10° 01:00:00 10° 82° (E) 1,974 3.7 -7.6°
Maximum altitude 01:01:02 11° 68° (ENE) 1,923 3.7 -7.8°
Drops below altitude 10° 01:02:04 10° 54° (NE) 1,976 3.9 -8.0°
Sets 01:06:00 0° 17° (NNE) 2,885 5.2 -8.7°
